Showing default

ESSA 8 (TOS-F), 3615

Orbit data source: Space-Track

ESSA 8 (TOS-F), 3615 is a payload satellite owned by ESSA (US) in SSO that was launched on Sun, 15 Dec 1968 UTC via a THOR DELTA N launch vehicle from the Air Force Western Test Range (AFWTR). Payload-class satellites include a variety of spacecraft equipped with specific instruments for various scientific and technological missions. These include communications satellites like Starlink; space stations such as the ISS; scientific satellites like the Hubble; Earth observation satellites from companies like Planet Labs, Umbra, and HawkEye 360; GPS; miniature CubeSats for education and research; and military/defense satellites.

Loading next visibility...
Identifier
3615, 1968-114A
Orbit
SSO
Country
Flag of USUS
Related business
Manufacturer
RCA/East Windsor
Mission
Non-operational spacecraft
Bus & Motor
TIROS I, Unknown motor
Mass
131 kg wet, 131 kg dry
Launch date (UTC)
1968-12-15 (58 years ago)
Launch vehicle
THOR DELTA N
Launch site
Air Force Western Test Range (AFWTR)
Object type
Payload
Rocket body
Debris
Shape & HBR
Unknown
Radar Cross Section
Medium (>0.1 m² and <1 m²)

Expand to show TLE details & history
Last TLE update: 2 days ago

TLE from 2 days ago
0 ESSA 8 (TOS-F)
1  3615U 68114A   26171.40557506 -.00000028  00000-0  10617-3 0  9993
2  3615 101.7003 120.7368 0031703 316.9920  42.8677 12.56249791636960
Epoch: 2026-06-20T09:44Z
TLE epoch observation values (Epoch: 2026-06-20T09:44:01.685Z)
Latitude
0.00001°
Longitude
66.10911°
Altitude
1,422.916 km
Speed
7.158 km/s
True Right ascension
08h 02m 56s
True Declination
0° 00' 00"
Sunlit
Object was in daylight at epoch
Visualization orbit readout
Latitude
Unknown
Longitude
Unknown
Altitude
Unknown
Speed
Unknown
Apparent Right ascension
Unknown
Apparent Declination
Unknown
Sunlit
N/A
Visualization observer readout
Local Sidereal Time
23:27:21
Azimuth
Unknown
Elevation
Unknown
Doppler factor
Unknown
Orbital elements
Apogee altitude
1,460.771 km
Perigee altitude
1,411.225 km
Semi-major axis
7,814.135 km
Eccentricity
0.00317
Inclination
101.7003°
RAAN
120.7368°
Arg. of periapsis
316.992°
True anomaly
43.11557°
Mean anomaly
42.8677°
Eccentric anomaly
42.99156°
Mean motion
3.14211 °/min
Orbital period
114.57 mins
BSTAR
0.00010617
Loading maneuver chart data...
Computing Atmospheric mass density...
Loading historical data...
Loading historical data...
Loading historical data...
Loading historical data...
Loading historical data...
Loading historical data...
Loading historical data...

Documentation

Showing up to 5 results
|